Location: Newark
(13.2833°S, 176.1833°W)
Time: 11:50:13
(UTC+00:00)

Hubble Space Telescope - Pass Details

Date: 23 November 2019
Orbit: 536 x 540 km, 28.5° (Epoch: 11 December)

Event Time Altitude Azimuth Distance (km) Brightness Sun altitude
Exits shadow 16:28:44 - 245° (WSW) 2,487 3.8 -9.5°
Reaches altitude 10° 16:31:30 10° 220° (SW) 1,794 3.3 -8.9°
Maximum altitude 16:33:26 13° 192° (SSW) 1,615 3.4 -8.5°
Drops below altitude 10° 16:35:22 10° 164° (SSE) 1,794 4.0 -8.0°
Sets 16:38:47 0° 135° (SE) 2,686 5.8 -7.3°
